Year,Month,Day,Hour,Minute,Value (Times are PST for temperature in C)
2010,10,01,00,00,11.40
2010,10,01,00,01,11.40
2010,10,01,00,02,11.40
2010,10,01,00,03,11.40
2010,10,01,00,04,11.40
2010,10,01,00,05,11.40
2010,10,01,00,06,11.40
2010,10,01,00,07,11.40
2010,10,01,00,08,11.40
2010,10,01,00,09,11.40
2010,10,01,00,10,11.40
2010,10,01,00,11,11.40
2010,10,01,00,12,11.40
2010,10,01,00,13,11.40
2010,10,01,00,14,11.40
2010,10,01,00,15,11.40
2010,10,01,00,16,11.40
2010,10,01,00,17,11.40
2010,10,01,00,18,11.40
2010,10,01,00,19,11.40
2010,10,01,00,20,11.40
2010,10,01,00,21,11.40
2010,10,01,00,22,11.50
2010,10,01,00,23,11.60
2010,10,01,00,24,11.60
2010,10,01,00,25,11.60
2010,10,01,00,26,11.60
2010,10,01,00,27,11.60
2010,10,01,00,28,11.70
2010,10,01,00,29,11.70
2010,10,01,00,30,11.70
2010,10,01,00,31,11.70
2010,10,01,00,32,11.70
2010,10,01,00,33,11.80
2010,10,01,00,34,11.80
2010,10,01,00,35,11.80
2010,10,01,00,36,11.80
2010,10,01,00,37,11.80
2010,10,01,00,38,11.80
2010,10,01,00,39,11.80
2010,10,01,00,40,11.80
2010,10,01,00,41,11.80
2010,10,01,00,42,11.80
2010,10,01,00,43,11.80
2010,10,01,00,44,11.80
2010,10,01,00,45,11.80
2010,10,01,00,46,11.80
2010,10,01,00,47,11.80
2010,10,01,00,48,11.80
2010,10,01,00,49,11.80
2010,10,01,00,50,11.80
2010,10,01,00,51,11.80
2010,10,01,00,52,11.80
2010,10,01,00,53,11.80
2010,10,01,00,54,11.80
2010,10,01,00,55,11.80
2010,10,01,00,56,11.80
2010,10,01,00,57,11.80
2010,10,01,00,58,11.80
2010,10,01,00,59,11.80
2010,10,01,01,00,11.80
2010,10,01,01,01,11.80
2010,10,01,01,02,11.80
2010,10,01,01,03,11.80
2010,10,01,01,04,11.80
2010,10,01,01,05,11.80
2010,10,01,01,06,11.70
2010,10,01,01,07,11.70
2010,10,01,01,08,11.70
2010,10,01,01,09,11.70
2010,10,01,01,10,11.70
2010,10,01,01,11,11.70
2010,10,01,01,12,11.70
2010,10,01,01,13,11.70
2010,10,01,01,14,11.70
2010,10,01,01,15,11.60
2010,10,01,01,16,11.60
2010,10,01,01,17,11.60
2010,10,01,01,18,11.60
2010,10,01,01,19,11.60
2010,10,01,01,20,11.60
2010,10,01,01,21,11.60
2010,10,01,01,22,11.60
2010,10,01,01,23,11.50
2010,10,01,01,24,11.40
2010,10,01,01,25,11.40
2010,10,01,01,26,11.40
2010,10,01,01,27,11.40
2010,10,01,01,28,11.40
2010,10,01,01,29,11.40
2010,10,01,01,30,11.40
2010,10,01,01,31,11.30
2010,10,01,01,32,11.30
2010,10,01,01,33,11.30
2010,10,01,01,34,11.30
2010,10,01,01,35,11.20
2010,10,01,01,36,11.20
2010,10,01,01,37,11.20
2010,10,01,01,38,11.20
2010,10,01,01,39,11.10
2010,10,01,01,40,11.10
2010,10,01,01,41,11.10
2010,10,01,01,42,11.10
2010,10,01,01,43,11.10
2010,10,01,01,44,11.10
2010,10,01,01,45,11.00
2010,10,01,01,46,10.90
2010,10,01,01,47,10.90
2010,10,01,01,48,10.90
2010,10,01,01,49,10.90
2010,10,01,01,50,10.90
2010,10,01,01,51,10.90
2010,10,01,01,52,10.90
2010,10,01,01,53,10.80
2010,10,01,01,54,10.80
2010,10,01,01,55,10.80
2010,10,01,01,56,10.80
2010,10,01,01,57,10.80
2010,10,01,01,58,10.80
2010,10,01,01,59,10.70
2010,10,01,02,00,10.70
2010,10,01,02,01,10.70
2010,10,01,02,02,10.70
2010,10,01,02,03,10.60
2010,10,01,02,04,10.60
2010,10,01,02,05,10.60
2010,10,01,02,06,10.60
2010,10,01,02,07,10.60
2010,10,01,02,08,10.60
2010,10,01,02,09,10.60
2010,10,01,02,10,10.60
2010,10,01,02,11,10.60
2010,10,01,02,12,10.60
2010,10,01,02,13,10.60
2010,10,01,02,14,10.60
2010,10,01,02,15,10.60
2010,10,01,02,16,10.60
2010,10,01,02,17,10.70
2010,10,01,02,18,10.70
2010,10,01,02,19,10.70
2010,10,01,02,20,10.70
2010,10,01,02,21,10.70
2010,10,01,02,22,10.70
2010,10,01,02,23,10.70
2010,10,01,02,24,10.70
2010,10,01,02,25,10.70
2010,10,01,02,26,10.70
2010,10,01,02,27,10.70
2010,10,01,02,28,10.70
2010,10,01,02,29,10.70
2010,10,01,02,30,10.70
2010,10,01,02,31,10.70
2010,10,01,02,32,10.70
2010,10,01,02,33,10.70
2010,10,01,02,34,10.70
2010,10,01,02,35,10.70
2010,10,01,02,36,10.60
2010,10,01,02,37,10.60
2010,10,01,02,38,10.60
2010,10,01,02,39,10.60
2010,10,01,02,40,10.60
2010,10,01,02,41,10.60
2010,10,01,02,42,10.60
2010,10,01,02,43,10.60
2010,10,01,02,44,10.60
2010,10,01,02,45,10.60
2010,10,01,02,46,10.60
2010,10,01,02,47,10.60
2010,10,01,02,48,10.60
2010,10,01,02,49,10.60
2010,10,01,02,50,10.60
2010,10,01,02,51,10.60
2010,10,01,02,52,10.60
2010,10,01,02,53,10.60
2010,10,01,02,54,10.60
2010,10,01,02,55,10.60
2010,10,01,02,56,10.60
2010,10,01,02,57,10.60
2010,10,01,02,58,10.60
2010,10,01,02,59,10.60
2010,10,01,03,00,10.60
2010,10,01,03,01,10.60
2010,10,01,03,02,10.60
2010,10,01,03,03,10.50
2010,10,01,03,04,10.40
2010,10,01,03,05,10.40
2010,10,01,03,06,10.40
2010,10,01,03,07,10.40
2010,10,01,03,08,10.40
2010,10,01,03,09,10.40
2010,10,01,03,10,10.30
2010,10,01,03,11,10.30
2010,10,01,03,12,10.30
2010,10,01,03,13,10.20
2010,10,01,03,14,10.20
2010,10,01,03,15,10.20
2010,10,01,03,16,10.10
2010,10,01,03,17,10.10
2010,10,01,03,18,10.10
2010,10,01,03,19,10.10
2010,10,01,03,20,10.10
2010,10,01,03,21,10.10
2010,10,01,03,22,10.10
2010,10,01,03,23,10.00
2010,10,01,03,24,9.90
2010,10,01,03,25,9.90
2010,10,01,03,26,9.90
2010,10,01,03,27,9.90
2010,10,01,03,28,9.90
2010,10,01,03,29,9.90
2010,10,01,03,30,10.00
2010,10,01,03,31,10.10
2010,10,01,03,32,10.10
2010,10,01,03,33,10.10
2010,10,01,03,34,10.20
2010,10,01,03,35,10.20
2010,10,01,03,36,10.30
2010,10,01,03,37,10.40
2010,10,01,03,38,10.40
2010,10,01,03,39,10.50
2010,10,01,03,40,10.60
2010,10,01,03,41,10.60
2010,10,01,03,42,10.70
2010,10,01,03,43,10.80
2010,10,01,03,44,10.80
2010,10,01,03,45,10.90
2010,10,01,03,46,10.90
2010,10,01,03,47,10.90
2010,10,01,03,48,10.90
2010,10,01,03,49,10.90
2010,10,01,03,50,10.90
2010,10,01,03,51,10.80
2010,10,01,03,52,10.80
2010,10,01,03,53,10.80
2010,10,01,03,54,10.80
2010,10,01,03,55,10.70
2010,10,01,03,56,10.70
2010,10,01,03,57,10.70
2010,10,01,03,58,10.60
2010,10,01,03,59,10.60
2010,10,01,04,00,10.60
2010,10,01,04,01,10.60
2010,10,01,04,02,10.60
2010,10,01,04,03,10.60
2010,10,01,04,04,10.60
2010,10,01,04,05,10.60
2010,10,01,04,06,10.50
2010,10,01,04,07,10.40
2010,10,01,04,08,10.40
2010,10,01,04,09,10.40
2010,10,01,04,10,10.40
2010,10,01,04,11,10.40
2010,10,01,04,12,10.40
2010,10,01,04,13,10.40
2010,10,01,04,14,10.40
2010,10,01,04,15,10.40
2010,10,01,04,16,10.30
2010,10,01,04,17,10.30
2010,10,01,04,18,10.30
2010,10,01,04,19,10.30
2010,10,01,04,20,10.30
2010,10,01,04,21,10.30
2010,10,01,04,22,10.30
2010,10,01,04,23,10.30
2010,10,01,04,24,10.30
2010,10,01,04,25,10.30
2010,10,01,04,26,10.30
2010,10,01,04,27,10.30
2010,10,01,04,28,10.30
2010,10,01,04,29,10.30
2010,10,01,04,30,10.40
2010,10,01,04,31,10.40
2010,10,01,04,32,10.40
2010,10,01,04,33,10.40
2010,10,01,04,34,10.40
2010,10,01,04,35,10.40
2010,10,01,04,36,10.40
2010,10,01,04,37,10.40
2010,10,01,04,38,10.40
2010,10,01,04,39,10.40
2010,10,01,04,40,10.40
2010,10,01,04,41,10.30
2010,10,01,04,42,10.30
2010,10,01,04,43,10.30
2010,10,01,04,44,10.40
2010,10,01,04,45,10.40
2010,10,01,04,46,10.40
2010,10,01,04,47,10.40
2010,10,01,04,48,10.40
2010,10,01,04,49,10.40
2010,10,01,04,50,10.40
2010,10,01,04,51,10.40
2010,10,01,04,52,10.40
2010,10,01,04,53,10.40
2010,10,01,04,54,10.40
2010,10,01,04,55,10.40
2010,10,01,04,56,10.40
2010,10,01,04,57,10.40
2010,10,01,04,58,10.40
2010,10,01,04,59,10.40
2010,10,01,05,00,10.50
2010,10,01,05,01,10.60
2010,10,01,05,02,10.60
2010,10,01,05,03,10.60
2010,10,01,05,04,10.60
2010,10,01,05,05,10.60
2010,10,01,05,06,10.60
2010,10,01,05,07,10.60
2010,10,01,05,08,10.60
2010,10,01,05,09,10.60
2010,10,01,05,10,10.50
2010,10,01,05,11,10.40
2010,10,01,05,12,10.50
2010,10,01,05,13,10.50
2010,10,01,05,14,10.40
2010,10,01,05,15,10.40
2010,10,01,05,16,10.50
2010,10,01,05,17,10.60
2010,10,01,05,18,10.60
2010,10,01,05,19,10.60
2010,10,01,05,20,10.60
2010,10,01,05,21,10.60
2010,10,01,05,22,10.70
2010,10,01,05,23,10.70
2010,10,01,05,24,10.80
2010,10,01,05,25,10.80
2010,10,01,05,26,10.90
2010,10,01,05,27,10.90
2010,10,01,05,28,10.90
2010,10,01,05,29,10.90
2010,10,01,05,30,11.00
2010,10,01,05,31,11.10
2010,10,01,05,32,11.10
2010,10,01,05,33,11.10
2010,10,01,05,34,11.10
2010,10,01,05,35,11.10
2010,10,01,05,36,11.10
2010,10,01,05,37,11.10
2010,10,01,05,38,11.10
2010,10,01,05,39,11.10
2010,10,01,05,40,11.10
2010,10,01,05,41,11.10
2010,10,01,05,42,11.10
2010,10,01,05,43,11.10
2010,10,01,05,44,11.10
2010,10,01,05,45,11.10
2010,10,01,05,46,11.10
2010,10,01,05,47,11.10
2010,10,01,05,48,11.10
2010,10,01,05,49,11.10
2010,10,01,05,50,11.10
2010,10,01,05,51,11.10
2010,10,01,05,52,11.10
2010,10,01,05,53,11.10
2010,10,01,05,54,11.10
2010,10,01,05,55,11.10
2010,10,01,05,56,11.10
2010,10,01,05,57,11.10
2010,10,01,05,58,11.10
2010,10,01,05,59,11.10
2010,10,01,06,00,11.10
2010,10,01,06,01,11.10
2010,10,01,06,02,11.10
2010,10,01,06,03,11.10
2010,10,01,06,04,11.10
2010,10,01,06,05,11.00
2010,10,01,06,06,10.90
2010,10,01,06,07,10.90
2010,10,01,06,08,10.90
2010,10,01,06,09,10.80
2010,10,01,06,10,10.70
2010,10,01,06,11,10.70
2010,10,01,06,12,10.60
2010,10,01,06,13,10.60
2010,10,01,06,14,10.60
2010,10,01,06,15,10.60
2010,10,01,06,16,10.50
2010,10,01,06,17,10.40
2010,10,01,06,18,10.40
2010,10,01,06,19,10.40
2010,10,01,06,20,10.40
2010,10,01,06,21,10.40
2010,10,01,06,22,10.30
2010,10,01,06,23,10.30
2010,10,01,06,24,10.30
2010,10,01,06,25,10.30
2010,10,01,06,26,10.30
2010,10,01,06,27,10.30
2010,10,01,06,28,10.30
2010,10,01,06,29,10.30
2010,10,01,06,30,10.30
2010,10,01,06,31,10.30
2010,10,01,06,32,10.40
2010,10,01,06,33,10.40
2010,10,01,06,34,10.50
2010,10,01,06,35,10.60
2010,10,01,06,36,10.70
2010,10,01,06,37,10.80
2010,10,01,06,38,10.90
2010,10,01,06,39,10.90
2010,10,01,06,40,11.10
2010,10,01,06,41,11.10
2010,10,01,06,42,11.10
2010,10,01,06,43,11.10
2010,10,01,06,44,11.20
2010,10,01,06,45,11.20
2010,10,01,06,46,11.20
2010,10,01,06,47,11.20
2010,10,01,06,48,11.20
2010,10,01,06,49,11.10
2010,10,01,06,50,11.10
2010,10,01,06,51,11.00
2010,10,01,06,52,10.90
2010,10,01,06,53,10.90
2010,10,01,06,54,10.90
2010,10,01,06,55,10.80
2010,10,01,06,56,10.80
2010,10,01,06,57,10.80
2010,10,01,06,58,10.70
2010,10,01,06,59,10.70
2010,10,01,07,00,10.60
2010,10,01,07,01,10.60
2010,10,01,07,02,10.60
2010,10,01,07,03,10.50
2010,10,01,07,04,10.40
2010,10,01,07,05,10.40
2010,10,01,07,06,10.40
2010,10,01,07,07,10.40
2010,10,01,07,08,10.40
2010,10,01,07,09,10.40
2010,10,01,07,10,10.40
2010,10,01,07,11,10.30
2010,10,01,07,12,10.30
2010,10,01,07,13,10.30
2010,10,01,07,14,10.30
2010,10,01,07,15,10.30
2010,10,01,07,16,10.30
2010,10,01,07,17,10.20
2010,10,01,07,18,10.20
2010,10,01,07,19,10.20
2010,10,01,07,20,10.20
2010,10,01,07,21,10.20
2010,10,01,07,22,10.20
2010,10,01,07,23,10.20
2010,10,01,07,24,10.20
2010,10,01,07,25,10.20
2010,10,01,07,26,10.30
2010,10,01,07,27,10.30
2010,10,01,07,28,10.30
2010,10,01,07,29,10.30
2010,10,01,07,30,10.30
2010,10,01,07,31,10.30
2010,10,01,07,32,10.30
2010,10,01,07,33,10.30
2010,10,01,07,34,10.30
2010,10,01,07,35,10.30
2010,10,01,07,36,10.30
2010,10,01,07,37,10.30
2010,10,01,07,38,10.30
2010,10,01,07,39,10.30
2010,10,01,07,40,10.30
2010,10,01,07,41,10.30
2010,10,01,07,42,10.30
2010,10,01,07,43,10.30
2010,10,01,07,44,10.30
2010,10,01,07,45,10.30
2010,10,01,07,46,10.30
2010,10,01,07,47,10.30
2010,10,01,07,48,10.30
2010,10,01,07,49,10.30
2010,10,01,07,50,10.40
2010,10,01,07,51,10.40
2010,10,01,07,52,10.40
2010,10,01,07,53,10.50
2010,10,01,07,54,10.60
2010,10,01,07,55,10.60
2010,10,01,07,56,10.60
2010,10,01,07,57,10.70
2010,10,01,07,58,10.80
2010,10,01,07,59,10.80
2010,10,01,08,00,10.90
2010,10,01,08,01,10.90
2010,10,01,08,02,11.00
2010,10,01,08,03,11.10
2010,10,01,08,04,11.10
2010,10,01,08,05,11.10
2010,10,01,08,06,11.10
2010,10,01,08,07,11.10
2010,10,01,08,08,11.10
2010,10,01,08,09,11.10
2010,10,01,08,10,11.10
2010,10,01,08,11,11.10
2010,10,01,08,12,11.10
2010,10,01,08,13,11.10
2010,10,01,08,14,11.10
2010,10,01,08,15,11.10
2010,10,01,08,16,11.10
2010,10,01,08,17,11.20
2010,10,01,08,18,11.20
2010,10,01,08,19,11.20
2010,10,01,08,20,11.20
2010,10,01,08,21,11.30
2010,10,01,08,22,11.30
2010,10,01,08,23,11.40
2010,10,01,08,24,11.40
2010,10,01,08,25,11.50
2010,10,01,08,26,11.60
2010,10,01,08,27,11.60
2010,10,01,08,28,11.70
2010,10,01,08,29,11.70
2010,10,01,08,30,11.80
2010,10,01,08,31,11.80
2010,10,01,08,32,11.80
2010,10,01,08,33,11.90
2010,10,01,08,34,12.00
2010,10,01,08,35,12.00
2010,10,01,08,36,12.10
2010,10,01,08,37,12.10
2010,10,01,08,38,12.20
2010,10,01,08,39,12.20
2010,10,01,08,40,12.30
2010,10,01,08,41,12.30
2010,10,01,08,42,12.30
2010,10,01,08,43,12.30
2010,10,01,08,44,12.30
2010,10,01,08,45,12.40
2010,10,01,08,46,12.40
2010,10,01,08,47,12.50
2010,10,01,08,48,12.50
2010,10,01,08,49,12.60
2010,10,01,08,50,12.60
2010,10,01,08,51,12.70
2010,10,01,08,52,12.70
2010,10,01,08,53,12.80
2010,10,01,08,54,12.80
2010,10,01,08,55,12.90
2010,10,01,08,56,13.00
2010,10,01,08,57,13.10
2010,10,01,08,58,13.20
2010,10,01,08,59,13.30
2010,10,01,09,00,13.40
2010,10,01,09,01,13.50
2010,10,01,09,02,13.60
2010,10,01,09,03,13.70
2010,10,01,09,04,13.80
2010,10,01,09,05,13.90
2010,10,01,09,06,14.00
2010,10,01,09,07,14.10
2010,10,01,09,08,14.20
2010,10,01,09,09,14.30
2010,10,01,09,10,14.50
2010,10,01,09,11,14.60
2010,10,01,09,12,14.70
2010,10,01,09,13,14.80
2010,10,01,09,14,15.00
2010,10,01,09,15,15.20
2010,10,01,09,16,15.30
2010,10,01,09,17,15.40
2010,10,01,09,18,15.50
2010,10,01,09,19,15.70
2010,10,01,09,20,15.80
2010,10,01,09,21,15.90
2010,10,01,09,22,16.00
2010,10,01,09,23,16.10
2010,10,01,09,24,16.10
2010,10,01,09,25,16.20
2010,10,01,09,26,16.20
2010,10,01,09,27,16.30
2010,10,01,09,28,16.30
2010,10,01,09,29,16.40
2010,10,01,09,30,16.40
2010,10,01,09,31,16.40
2010,10,01,09,32,16.50
2010,10,01,09,33,16.60
2010,10,01,09,34,16.60
2010,10,01,09,35,16.60
2010,10,01,09,36,16.60
2010,10,01,09,37,16.70
2010,10,01,09,38,16.70
2010,10,01,09,39,16.70
2010,10,01,09,40,16.70
2010,10,01,09,41,16.70
2010,10,01,09,42,16.70
2010,10,01,09,43,16.70
2010,10,01,09,44,16.80
2010,10,01,09,45,16.80
2010,10,01,09,46,16.90
2010,10,01,09,47,16.90
2010,10,01,09,48,16.90
2010,10,01,09,49,17.00
2010,10,01,09,50,16.90
2010,10,01,09,51,16.90
2010,10,01,09,52,17.00
2010,10,01,09,53,17.00
2010,10,01,09,54,17.10
2010,10,01,09,55,17.10
2010,10,01,09,56,17.10
2010,10,01,09,57,17.20
2010,10,01,09,58,17.30
2010,10,01,09,59,17.20
2010,10,01,10,00,17.20
2010,10,01,10,01,17.20
2010,10,01,10,02,17.10
2010,10,01,10,03,17.10
2010,10,01,10,04,17.10
2010,10,01,10,05,17.10
2010,10,01,10,06,17.20
2010,10,01,10,07,17.20
2010,10,01,10,08,17.30
2010,10,01,10,09,17.40
2010,10,01,10,10,17.50
2010,10,01,10,11,17.60
2010,10,01,10,12,17.60
2010,10,01,10,13,17.60
2010,10,01,10,14,17.70
2010,10,01,10,15,17.70
2010,10,01,10,16,17.70
2010,10,01,10,17,17.60
2010,10,01,10,18,17.60
2010,10,01,10,19,17.50
2010,10,01,10,20,17.50
2010,10,01,10,21,17.50
2010,10,01,10,22,17.50
2010,10,01,10,23,17.50
2010,10,01,10,24,17.60
2010,10,01,10,25,17.60
2010,10,01,10,26,17.60
2010,10,01,10,27,17.50
2010,10,01,10,28,17.50
2010,10,01,10,29,17.60
2010,10,01,10,30,17.60
2010,10,01,10,31,17.60
2010,10,01,10,32,17.60
2010,10,01,10,33,17.60
2010,10,01,10,34,17.70
2010,10,01,10,35,17.70
2010,10,01,10,36,17.80
2010,10,01,10,37,17.80
2010,10,01,10,38,17.70
2010,10,01,10,39,17.70
2010,10,01,10,40,17.70
2010,10,01,10,41,17.80
2010,10,01,10,42,17.80
2010,10,01,10,43,17.80
2010,10,01,10,44,17.80
2010,10,01,10,45,17.90
2010,10,01,10,46,17.90
2010,10,01,10,47,17.90
2010,10,01,10,48,17.90
2010,10,01,10,49,17.90
2010,10,01,10,50,17.90
2010,10,01,10,51,17.90
2010,10,01,10,52,17.90
2010,10,01,10,53,18.00
2010,10,01,10,54,18.10
2010,10,01,10,55,18.20
2010,10,01,10,56,18.20
2010,10,01,10,57,18.20
2010,10,01,10,58,18.20
2010,10,01,10,59,18.20
2010,10,01,11,00,18.20
2010,10,01,11,01,18.20
2010,10,01,11,02,18.20
2010,10,01,11,03,18.20
2010,10,01,11,04,18.20
2010,10,01,11,05,18.20
2010,10,01,11,06,18.10
2010,10,01,11,07,18.00
2010,10,01,11,08,17.90
2010,10,01,11,09,17.90
2010,10,01,11,10,17.90
2010,10,01,11,11,17.90
2010,10,01,11,12,17.90
2010,10,01,11,13,17.90
2010,10,01,11,14,17.80
2010,10,01,11,15,17.80
2010,10,01,11,16,17.70
2010,10,01,11,17,17.70
2010,10,01,11,18,17.80
2010,10,01,11,19,17.90
2010,10,01,11,20,17.90
2010,10,01,11,21,17.90
2010,10,01,11,22,17.90
2010,10,01,11,23,17.90
2010,10,01,11,24,18.00
2010,10,01,11,25,18.10
2010,10,01,11,26,18.10
2010,10,01,11,27,18.20
2010,10,01,11,28,18.20
2010,10,01,11,29,18.20
2010,10,01,11,30,18.30
2010,10,01,11,31,18.40
2010,10,01,11,32,18.50
2010,10,01,11,33,18.50
2010,10,01,11,34,18.60
2010,10,01,11,35,18.60
2010,10,01,11,36,18.80
2010,10,01,11,37,18.90
2010,10,01,11,38,18.90
2010,10,01,11,39,18.90
2010,10,01,11,40,19.10
2010,10,01,11,41,19.10
2010,10,01,11,42,19.10
2010,10,01,11,43,19.20
2010,10,01,11,44,19.20
2010,10,01,11,45,19.20
2010,10,01,11,46,19.30
2010,10,01,11,47,19.40
2010,10,01,11,48,19.50
2010,10,01,11,49,19.50
2010,10,01,11,50,19.40
2010,10,01,11,51,19.50
2010,10,01,11,52,19.50
2010,10,01,11,53,19.50
2010,10,01,11,54,19.50
2010,10,01,11,55,19.60
2010,10,01,11,56,19.60
2010,10,01,11,57,19.60
2010,10,01,11,58,19.60
2010,10,01,11,59,19.60
2010,10,01,12,00,19.70
2010,10,01,12,01,19.70
2010,10,01,12,02,19.80
2010,10,01,12,03,19.80
2010,10,01,12,04,19.70
2010,10,01,12,05,19.70
2010,10,01,12,06,19.60
2010,10,01,12,07,19.50
2010,10,01,12,08,19.50
2010,10,01,12,09,19.40
2010,10,01,12,10,19.50
2010,10,01,12,11,19.40
2010,10,01,12,12,19.50
2010,10,01,12,13,19.60
2010,10,01,12,14,19.60
2010,10,01,12,15,19.60
2010,10,01,12,16,19.60
2010,10,01,12,17,19.60
2010,10,01,12,18,19.60
2010,10,01,12,19,19.60
2010,10,01,12,20,19.60
2010,10,01,12,21,19.60
2010,10,01,12,22,19.60
2010,10,01,12,23,19.60
2010,10,01,12,24,19.60
2010,10,01,12,25,19.70
2010,10,01,12,26,19.90
2010,10,01,12,27,19.90
2010,10,01,12,28,20.10
2010,10,01,12,29,20.20
2010,10,01,12,30,20.20
2010,10,01,12,31,20.20
2010,10,01,12,32,20.20
2010,10,01,12,33,20.20
2010,10,01,12,34,20.20
2010,10,01,12,35,20.40
2010,10,01,12,36,20.50
2010,10,01,12,37,20.50
2010,10,01,12,38,20.40
2010,10,01,12,39,20.40
2010,10,01,12,40,20.30
2010,10,01,12,41,20.10
2010,10,01,12,42,19.90
2010,10,01,12,43,19.80
2010,10,01,12,44,19.70
2010,10,01,12,45,19.70
2010,10,01,12,46,19.70
2010,10,01,12,47,19.70
2010,10,01,12,48,19.70
2010,10,01,12,49,19.60
2010,10,01,12,50,19.50
2010,10,01,12,51,19.50
2010,10,01,12,52,19.40
2010,10,01,12,53,19.30
2010,10,01,12,54,19.30
2010,10,01,12,55,19.30
2010,10,01,12,56,19.30
2010,10,01,12,57,19.30
2010,10,01,12,58,19.30
2010,10,01,12,59,19.20
2010,10,01,13,00,19.10
2010,10,01,13,01,19.10
2010,10,01,13,02,18.90
2010,10,01,13,03,18.80
2010,10,01,13,04,18.50
2010,10,01,13,05,18.40
2010,10,01,13,06,18.30
2010,10,01,13,07,18.30
2010,10,01,13,08,18.30
2010,10,01,13,09,18.20
2010,10,01,13,10,18.20
2010,10,01,13,11,18.20
2010,10,01,13,12,18.40
2010,10,01,13,13,18.50
2010,10,01,13,14,18.70
2010,10,01,13,15,18.80
2010,10,01,13,16,19.00
2010,10,01,13,17,19.10
2010,10,01,13,18,19.30
2010,10,01,13,19,19.40
2010,10,01,13,20,19.60
2010,10,01,13,21,19.70
2010,10,01,13,22,19.80
2010,10,01,13,23,19.90
2010,10,01,13,24,20.10
2010,10,01,13,25,20.20
2010,10,01,13,26,20.30
2010,10,01,13,27,20.40
2010,10,01,13,28,20.50
2010,10,01,13,29,20.40
2010,10,01,13,30,20.10
2010,10,01,13,31,20.00
2010,10,01,13,32,20.00
2010,10,01,13,33,20.10
2010,10,01,13,34,20.20
2010,10,01,13,35,20.20
2010,10,01,13,36,20.20
2010,10,01,13,37,20.20
2010,10,01,13,38,20.20
2010,10,01,13,39,20.30
2010,10,01,13,40,20.40
2010,10,01,13,41,20.40
2010,10,01,13,42,20.50
2010,10,01,13,43,20.40
2010,10,01,13,44,20.20
2010,10,01,13,45,20.20
2010,10,01,13,46,20.20
2010,10,01,13,47,20.30
2010,10,01,13,48,20.40
2010,10,01,13,49,20.50
2010,10,01,13,50,20.70
2010,10,01,13,51,20.70
2010,10,01,13,52,20.70
2010,10,01,13,53,20.60
2010,10,01,13,54,20.70
2010,10,01,13,55,20.80
2010,10,01,13,56,20.80
2010,10,01,13,57,20.80
2010,10,01,13,58,20.70
2010,10,01,13,59,20.60
2010,10,01,14,00,20.50
2010,10,01,14,01,20.40
2010,10,01,14,02,20.40
2010,10,01,14,03,20.50
2010,10,01,14,04,20.70
2010,10,01,14,05,20.80
2010,10,01,14,06,20.90
2010,10,01,14,07,20.90
2010,10,01,14,08,20.90
2010,10,01,14,09,20.90
2010,10,01,14,10,21.00
2010,10,01,14,11,21.10
2010,10,01,14,12,21.10
2010,10,01,14,13,21.10
2010,10,01,14,14,21.10
2010,10,01,14,15,21.00
2010,10,01,14,16,21.00
2010,10,01,14,17,20.90
2010,10,01,14,18,20.80
2010,10,01,14,19,20.70
2010,10,01,14,20,20.70
2010,10,01,14,21,20.70
2010,10,01,14,22,20.70
2010,10,01,14,23,20.90
2010,10,01,14,24,21.10
2010,10,01,14,25,21.20
2010,10,01,14,26,21.30
2010,10,01,14,27,21.30
2010,10,01,14,28,21.40
2010,10,01,14,29,21.40
2010,10,01,14,30,21.40
2010,10,01,14,31,21.30
2010,10,01,14,32,21.30
2010,10,01,14,33,21.40
2010,10,01,14,34,21.50
2010,10,01,14,35,21.40
2010,10,01,14,36,21.40
2010,10,01,14,37,21.40
2010,10,01,14,38,21.50
2010,10,01,14,39,21.60
2010,10,01,14,40,21.50
2010,10,01,14,41,21.50
2010,10,01,14,42,21.60
2010,10,01,14,43,21.60
2010,10,01,14,44,21.60
2010,10,01,14,45,21.60
2010,10,01,14,46,21.50
2010,10,01,14,47,21.60
2010,10,01,14,48,21.60
2010,10,01,14,49,21.60
2010,10,01,14,50,21.60
2010,10,01,14,51,21.60
2010,10,01,14,52,21.60
2010,10,01,14,53,21.70
2010,10,01,14,54,21.70
2010,10,01,14,55,21.80
2010,10,01,14,56,21.80
2010,10,01,14,57,21.90
2010,10,01,14,58,22.00
2010,10,01,14,59,22.00
2010,10,01,15,00,22.10
2010,10,01,15,01,22.20
2010,10,01,15,02,22.20
2010,10,01,15,03,22.20
2010,10,01,15,04,22.20
2010,10,01,15,05,22.30
2010,10,01,15,06,22.30
2010,10,01,15,07,22.40
2010,10,01,15,08,22.50
2010,10,01,15,09,22.50
2010,10,01,15,10,22.50
2010,10,01,15,11,22.50
2010,10,01,15,12,22.50
2010,10,01,15,13,22.50
2010,10,01,15,14,22.50
2010,10,01,15,15,22.50
2010,10,01,15,16,22.60
2010,10,01,15,17,22.60
2010,10,01,15,18,22.70
2010,10,01,15,19,22.60
2010,10,01,15,20,22.60
2010,10,01,15,21,22.70
2010,10,01,15,22,22.80
2010,10,01,15,23,22.80
2010,10,01,15,24,22.90
2010,10,01,15,25,23.00
2010,10,01,15,26,23.10
2010,10,01,15,27,23.20
2010,10,01,15,28,23.20
2010,10,01,15,29,23.20
2010,10,01,15,30,23.30
2010,10,01,15,31,23.30
2010,10,01,15,32,23.30
2010,10,01,15,33,23.30
2010,10,01,15,34,23.30
2010,10,01,15,35,23.40
2010,10,01,15,36,23.40
2010,10,01,15,37,23.30
2010,10,01,15,38,23.30
2010,10,01,15,39,23.20
2010,10,01,15,40,23.20
2010,10,01,15,41,23.10
2010,10,01,15,42,23.00
2010,10,01,15,43,22.90
2010,10,01,15,44,22.90
2010,10,01,15,45,22.90
2010,10,01,15,46,22.90
2010,10,01,15,47,22.90
2010,10,01,15,48,22.90
2010,10,01,15,49,23.10
2010,10,01,15,50,22.90
2010,10,01,15,51,22.90
2010,10,01,15,52,22.90
2010,10,01,15,53,22.90
2010,10,01,15,54,22.80
2010,10,01,15,55,22.70
2010,10,01,15,56,22.70
2010,10,01,15,57,22.60
2010,10,01,15,58,22.60
2010,10,01,15,59,22.60
2010,10,01,16,00,22.70
2010,10,01,16,01,22.70
2010,10,01,16,02,22.70
2010,10,01,16,03,22.70
2010,10,01,16,04,22.60
2010,10,01,16,05,22.60
2010,10,01,16,06,22.60
2010,10,01,16,07,22.60
2010,10,01,16,08,22.60
2010,10,01,16,09,22.60
2010,10,01,16,10,22.60
2010,10,01,16,11,22.70
2010,10,01,16,12,22.70
2010,10,01,16,13,22.70
2010,10,01,16,14,22.80
2010,10,01,16,15,22.90
2010,10,01,16,16,22.90
2010,10,01,16,17,22.90
2010,10,01,16,18,22.80
2010,10,01,16,19,22.70
2010,10,01,16,20,22.60
2010,10,01,16,21,22.60
2010,10,01,16,22,22.50
2010,10,01,16,23,22.50
2010,10,01,16,24,22.40
2010,10,01,16,25,22.40
2010,10,01,16,26,22.40
2010,10,01,16,27,22.40
2010,10,01,16,28,22.40
2010,10,01,16,29,22.40
2010,10,01,16,30,22.40
2010,10,01,16,31,22.50
2010,10,01,16,32,22.50
2010,10,01,16,33,22.50
2010,10,01,16,34,22.40
2010,10,01,16,35,22.50
2010,10,01,16,36,22.50
2010,10,01,16,37,22.50
2010,10,01,16,38,22.50
2010,10,01,16,39,22.50
2010,10,01,16,40,22.50
2010,10,01,16,41,22.50
2010,10,01,16,42,22.50
2010,10,01,16,43,22.60
2010,10,01,16,44,22.60
2010,10,01,16,45,22.60
2010,10,01,16,46,22.70
2010,10,01,16,47,22.70
2010,10,01,16,48,22.70
2010,10,01,16,49,22.70
2010,10,01,16,50,22.60
2010,10,01,16,51,22.60
2010,10,01,16,52,22.60
2010,10,01,16,53,22.60
2010,10,01,16,54,22.50
2010,10,01,16,55,22.50
2010,10,01,16,56,22.50
2010,10,01,16,57,22.50
2010,10,01,16,58,22.40
2010,10,01,16,59,22.40
2010,10,01,17,00,22.30
2010,10,01,17,01,22.30
2010,10,01,17,02,22.30
2010,10,01,17,03,22.40
2010,10,01,17,04,22.40
2010,10,01,17,05,22.30
2010,10,01,17,06,22.30
2010,10,01,17,07,22.20
2010,10,01,17,08,22.20
2010,10,01,17,09,22.20
2010,10,01,17,10,22.20
2010,10,01,17,11,22.20
2010,10,01,17,12,22.30
2010,10,01,17,13,22.30
2010,10,01,17,14,22.30
2010,10,01,17,15,22.30
2010,10,01,17,16,22.30
2010,10,01,17,17,22.30
2010,10,01,17,18,22.30
2010,10,01,17,19,22.30